Weather History for Emporia, KS

Change the Weather History Date:

Monday, February 27, 2012

  Actual Average Record
Temperature  
Mean Temperature 37 °F 39 °F  
Max Temperature 46 °F 50 °F 68 °F (2006)
Min Temperature 27 °F 28 °F 5 °F (2002)
Degree Days  
Heating Degree Days 28 26  
Month to date heating degree days 720 808  
Since 1 July heating degree days 3296 3796  
Cooling Degree Days 0 0  
Month to date cooling degree days 0 0  
Year to date cooling degree days 0 0  
Moisture  
Dew Point 20 °F    
Average Humidity 53    
Maximum Humidity 69    
Minimum Humidity 36    
Precipitation  
Precipitation 0.00 in 0.04 in 1.26 in (2011)
Month to date precipitation 1.89 1.19  
Year to date precipitation 1.89 1.82  
Sea Level Pressure  
Sea Level Pressure 30.39 in    
Wind  
Wind Speed 11 mph (NE)    
Max Wind Speed 18 mph    
Max Gust Speed 23 mph    
Visibility 10 miles    
Events      
T = Trace of Precipitation, MM = Missing Value Source: NWS Daily Summary

Daily Weather History Graph

Daily Weather History Graph

Search for Another Location

Airport:

Trip Planner

Search our weather history database for the weather conditions in past years. The results will help you decide how hot, cold, wet, or windy it might be!

Date:

Astronomy

Feb. 27, 2012 Rise Set
Actual Time 7:00 AM CST 6:15 PM CST
Civil Twilight 6:33 AM CST 6:42 PM CST
Nautical Twilight 6:02 AM CST 7:12 PM CST
Astronomical Twilight 5:32 AM CST 7:43 PM CST
Moon 9:35 AM CST (2/27) No Moon Set
Length of Visible Light 12h 08m
Length of Day
11h 15m
Waxing Crescent, 29% of the Moon is Illuminated
Feb 27
Waxing Crescent
Feb 29
First Quarter
Mar 8
Full
Mar 14
Last Quarter
Mar 22
New

Hourly Weather History & Observations

Time (CST) Temp. Windchill Dew Point Humidity Pressure Visibility Wind Dir Wind Speed Gust Speed Precip Events Conditions
12:53 AM 37.0 °F 31.6 °F 19.0 °F 48% 30.26 in 10.0 mi NW 6.9 mph - N/A   Clear
1:53 AM 37.0 °F 31.0 °F 19.9 °F 50% 30.30 in 10.0 mi NW 8.1 mph - N/A   Clear
2:53 AM 36.0 °F 29.0 °F 21.9 °F 57% 30.33 in 10.0 mi NNW 9.2 mph - N/A   Clear
3:53 AM 35.1 °F 25.2 °F 23.0 °F 61% 30.36 in 10.0 mi North 16.1 mph 23.0 mph N/A   Clear
4:53 AM 32.0 °F 22.5 °F 21.9 °F 66% 30.40 in 10.0 mi North 12.7 mph - N/A   Clear
6:53 AM 28.0 °F 19.3 °F 19.9 °F 72% 30.45 in 10.0 mi NNE 9.2 mph - N/A   Clear
7:53 AM 30.0 °F 21.7 °F 21.0 °F 69% 30.47 in 10.0 mi NNE 9.2 mph - N/A   Clear
8:53 AM 33.1 °F 23.4 °F 19.0 °F 56% 30.49 in 10.0 mi NE 13.8 mph - N/A   Clear
9:53 AM 37.0 °F 29.3 °F 18.0 °F 46% 30.50 in 10.0 mi ENE 11.5 mph - N/A   Clear
10:53 AM 39.9 °F 33.9 °F 18.0 °F 41% 30.50 in 10.0 mi East 9.2 mph - N/A   Clear
11:53 AM 41.0 °F 34.3 °F 17.1 °F 38% 30.49 in 10.0 mi ENE 11.5 mph - N/A   Clear
12:53 PM 43.0 °F 37.2 °F 18.0 °F 37% 30.45 in 10.0 mi NE 10.4 mph - N/A   Clear
1:53 PM 43.0 °F 37.2 °F 18.0 °F 37% 30.44 in 10.0 mi NE 10.4 mph - N/A   Clear
2:53 PM 45.0 °F 39.7 °F 19.0 °F 36% 30.41 in 10.0 mi ENE 10.4 mph - N/A   Partly Cloudy
3:53 PM 45.0 °F 39.7 °F 19.0 °F 36% 30.40 in 10.0 mi East 10.4 mph - N/A   Mostly Cloudy
4:53 PM 45.0 °F 38.9 °F 21.0 °F 39% 30.38 in 10.0 mi East 12.7 mph - N/A   Overcast
5:53 PM 44.1 °F 37.7 °F 19.9 °F 38% 30.35 in 10.0 mi ENE 12.7 mph - N/A   Overcast
6:53 PM 39.9 °F 33.4 °F 21.0 °F 47% 30.35 in 10.0 mi East 10.4 mph - N/A   Clear
7:53 PM 37.0 °F 29.8 °F 21.0 °F 52% 30.35 in 10.0 mi East 10.4 mph - N/A   Clear
8:53 PM 37.0 °F 29.8 °F 21.9 °F 54% 30.34 in 10.0 mi East 10.4 mph - N/A   Clear
9:53 PM 35.1 °F 28.6 °F 21.9 °F 59% 30.33 in 10.0 mi East 8.1 mph - N/A   Clear
10:53 PM 37.9 °F 30.0 °F 23.0 °F 55% 30.30 in 10.0 mi East 12.7 mph - N/A   Overcast
11:53 PM 39.9 °F 33.4 °F 23.0 °F 51% 30.27 in 10.0 mi ESE 10.4 mph - N/A   Overcast